TimeEST,TemperatureF,Dew PointF,Humidity,Sea Level PressureIn,VisibilityMPH,Wind Direction,Wind SpeedMPH,Gust SpeedMPH,PrecipitationIn,Events,Conditions,WindDirDegrees,DateUTC
12:53 AM,34.0,26.1,73,30.47,10.0,Calm,Calm,-,N/A,,Clear,0,2012-11-15 05:53:00
1:53 AM,30.9,25.0,79,30.45,10.0,East,4.6,-,N/A,,Clear,80,2012-11-15 06:53:00
2:53 AM,30.0,26.1,85,30.45,10.0,Calm,Calm,-,N/A,,Clear,0,2012-11-15 07:53:00
3:53 AM,30.0,26.1,85,30.43,8.0,Calm,Calm,-,N/A,,Clear,0,2012-11-15 08:53:00
4:53 AM,30.9,27.0,85,30.43,9.0,Calm,Calm,-,N/A,,Clear,0,2012-11-15 09:53:00
5:53 AM,30.0,27.0,88,30.43,9.0,NNW,4.6,-,N/A,,Clear,340,2012-11-15 10:53:00
6:53 AM,30.0,27.0,88,30.44,10.0,NNW,5.8,-,N/A,,Overcast,330,2012-11-15 11:53:00
7:53 AM,33.1,28.9,85,30.45,10.0,Calm,Calm,-,N/A,,Overcast,0,2012-11-15 12:53:00
8:53 AM,34.0,30.0,85,30.45,9.0,NNW,3.5,-,N/A,,Overcast,330,2012-11-15 13:53:00
9:53 AM,36.0,30.9,82,30.45,10.0,NW,4.6,-,N/A,,Overcast,320,2012-11-15 14:53:00
10:53 AM,37.0,28.9,73,30.44,10.0,NNW,4.6,-,N/A,,Overcast,330,2012-11-15 15:53:00
11:53 AM,39.0,28.9,67,30.42,10.0,NNW,6.9,-,N/A,,Overcast,330,2012-11-15 16:53:00
12:53 PM,39.9,28.0,63,30.41,10.0,Calm,Calm,-,N/A,,Overcast,0,2012-11-15 17:53:00
1:53 PM,42.1,30.0,62,30.39,10.0,NE,6.9,-,N/A,,Overcast,40,2012-11-15 18:53:00
2:53 PM,43.0,30.0,60,30.37,10.0,NE,3.5,-,N/A,,Partly Cloudy,50,2012-11-15 19:53:00
3:53 PM,43.0,30.9,62,30.36,10.0,NE,4.6,-,N/A,,Clear,40,2012-11-15 20:53:00
4:53 PM,41.0,30.9,67,30.37,10.0,NE,3.5,-,N/A,,Clear,40,2012-11-15 21:53:00
5:53 PM,41.0,30.0,65,30.37,10.0,Calm,Calm,-,N/A,,Clear,0,2012-11-15 22:53:00
6:53 PM,37.9,30.9,76,30.37,10.0,East,4.6,-,N/A,,Clear,80,2012-11-15 23:53:00
7:53 PM,39.0,30.0,70,30.37,10.0,Calm,Calm,-,N/A,,Clear,0,2012-11-16 00:53:00
8:53 PM,37.9,30.9,76,30.36,8.0,Calm,Calm,-,N/A,,Clear,0,2012-11-16 01:53:00
9:53 PM,36.0,30.9,82,30.35,8.0,NW,3.5,-,N/A,,Clear,310,2012-11-16 02:53:00
10:53 PM,35.1,30.0,82,30.36,8.0,Calm,Calm,-,N/A,,Clear,0,2012-11-16 03:53:00
11:53 PM,34.0,30.0,85,30.36,7.0,NNW,3.5,-,N/A,,Clear,330,2012-11-16 04:53:00